TimeCST,TemperatureF,Dew PointF,Humidity,Sea Level PressureIn,VisibilityMPH,Wind Direction,Wind SpeedMPH,Gust SpeedMPH,PrecipitationIn,Events,Conditions,WindDirDegrees,DateUTC
12:15 AM,21.2,14.0,74,30.27,5.0,North,-9999.0,-,N/A,,Clear,0,2013-03-08 06:15:00
12:35 AM,21.2,15.8,80,30.27,5.0,North,-9999.0,-,N/A,,Clear,0,2013-03-08 06:35:00
12:55 AM,21.2,14.0,74,30.27,5.0,North,-9999.0,-,N/A,,Clear,0,2013-03-08 06:55:00
1:15 AM,21.2,15.8,80,30.27,5.0,North,-9999.0,-,N/A,,Clear,0,2013-03-08 07:15:00
1:35 AM,23.0,15.8,74,30.27,5.0,North,-9999.0,-,N/A,,Clear,0,2013-03-08 07:35:00
1:55 AM,21.2,15.8,80,30.27,5.0,North,-9999.0,-,N/A,,Clear,0,2013-03-08 07:55:00
2:15 AM,23.0,15.8,74,30.27,5.0,North,-9999.0,-,N/A,,Clear,0,2013-03-08 08:15:00
2:35 AM,21.2,15.8,80,30.27,5.0,North,-9999.0,-,N/A,,Clear,0,2013-03-08 08:35:00
2:55 AM,21.2,15.8,80,30.27,5.0,North,-9999.0,-,N/A,,Clear,0,2013-03-08 08:55:00
3:15 AM,21.2,14.0,74,30.26,5.0,North,-9999.0,-,N/A,,Clear,0,2013-03-08 09:15:00
3:35 AM,21.2,14.0,74,30.25,5.0,North,-9999.0,-,N/A,,Clear,0,2013-03-08 09:35:00
3:55 AM,21.2,12.2,68,30.25,5.0,North,-9999.0,-,N/A,,Clear,0,2013-03-08 09:55:00
4:15 AM,19.4,12.2,74,30.26,5.0,North,-9999.0,-,N/A,,Clear,0,2013-03-08 10:15:00
4:35 AM,19.4,12.2,74,30.26,5.0,North,-9999.0,-,N/A,,Clear,0,2013-03-08 10:35:00
4:55 AM,19.4,12.2,74,30.26,5.0,North,-9999.0,-,N/A,,Clear,0,2013-03-08 10:55:00
5:15 AM,19.4,12.2,74,30.26,5.0,North,-9999.0,-,N/A,,Clear,0,2013-03-08 11:15:00
5:35 AM,19.4,12.2,74,30.26,5.0,North,-9999.0,-,N/A,,Clear,0,2013-03-08 11:35:00
5:55 AM,19.4,12.2,74,30.26,5.0,North,-9999.0,-,N/A,,Clear,0,2013-03-08 11:55:00
6:15 AM,17.6,12.2,79,30.26,5.0,North,-9999.0,-,N/A,,Clear,0,2013-03-08 12:15:00
6:35 AM,17.6,12.2,79,30.26,3.0,North,-9999.0,-,N/A,,Clear,0,2013-03-08 12:35:00
6:55 AM,17.6,10.4,73,30.26,3.0,North,-9999.0,-,N/A,,Clear,0,2013-03-08 12:55:00
7:15 AM,17.6,12.2,79,30.26,3.0,North,-9999.0,-,N/A,,Clear,0,2013-03-08 13:15:00
7:35 AM,17.6,12.2,79,30.26,3.0,North,-9999.0,-,N/A,,Clear,0,2013-03-08 13:35:00
7:55 AM,19.4,12.2,74,30.25,3.0,North,-9999.0,-,N/A,,Clear,0,2013-03-08 13:55:00
8:15 AM,21.2,14.0,74,30.26,3.0,North,-9999.0,-,N/A,,Clear,0,2013-03-08 14:15:00
8:35 AM,21.2,15.8,80,30.27,3.0,North,-9999.0,-,N/A,,Clear,0,2013-03-08 14:35:00
8:55 AM,24.8,17.6,74,30.27,3.0,North,-9999.0,-,N/A,,Clear,0,2013-03-08 14:55:00
9:15 AM,24.8,17.6,74,30.27,3.0,North,-9999.0,-,N/A,,Clear,0,2013-03-08 15:15:00
9:35 AM,26.6,19.4,74,30.27,3.0,North,-9999.0,-,N/A,,Clear,0,2013-03-08 15:35:00
9:55 AM,26.6,19.4,74,30.26,3.0,North,-9999.0,-,N/A,,Clear,0,2013-03-08 15:55:00
10:15 AM,28.4,19.4,69,30.26,4.0,North,-9999.0,-,N/A,,Clear,0,2013-03-08 16:15:00
10:35 AM,30.2,21.2,69,30.26,4.0,North,-9999.0,-,N/A,,Clear,0,2013-03-08 16:35:00
11:15 AM,32.0,23.0,69,30.25,4.0,North,-9999.0,-,N/A,,Clear,0,2013-03-08 17:15:00
11:35 AM,33.8,23.0,65,30.24,5.0,North,-9999.0,-,N/A,,Clear,0,2013-03-08 17:35:00
11:55 AM,33.8,23.0,65,30.24,5.0,North,-9999.0,-,N/A,,Clear,0,2013-03-08 17:55:00
12:15 PM,35.6,23.0,60,30.24,5.0,North,-9999.0,-,N/A,,Clear,0,2013-03-08 18:15:00
12:35 PM,35.6,24.8,65,-9999,5.0,North,-9999.0,-,N/A,,Clear,0,2013-03-08 18:35:00
12:55 PM,-9999,-9999,N/A,-9999,5.0,North,-9999.0,-,N/A,,Clear,0,2013-03-08 18:55:00
1:15 PM,-9999,-9999,N/A,-9999,5.0,North,-9999.0,-,N/A,,Clear,0,2013-03-08 19:15:00
1:35 PM,35.6,26.6,70,30.20,5.0,North,-9999.0,-,N/A,,Clear,0,2013-03-08 19:35:00
1:55 PM,37.4,26.6,65,30.19,5.0,North,-9999.0,-,N/A,,Clear,0,2013-03-08 19:55:00
2:15 PM,37.4,26.6,65,30.19,5.0,North,-9999.0,-,N/A,,Clear,0,2013-03-08 20:15:00
2:35 PM,37.4,26.6,65,30.19,5.0,North,-9999.0,-,N/A,,Clear,0,2013-03-08 20:35:00
2:55 PM,37.4,26.6,65,30.19,4.0,North,-9999.0,-,N/A,,Clear,0,2013-03-08 20:55:00
3:15 PM,37.4,26.6,65,30.19,4.0,North,-9999.0,-,N/A,,Clear,0,2013-03-08 21:15:00
3:35 PM,37.4,28.4,70,30.17,4.0,North,-9999.0,-,N/A,,Clear,0,2013-03-08 21:35:00
3:55 PM,37.4,26.6,65,30.16,4.0,North,-9999.0,-,N/A,,Clear,0,2013-03-08 21:55:00
4:15 PM,37.4,26.6,65,30.16,4.0,North,-9999.0,-,N/A,,Clear,0,2013-03-08 22:15:00
4:35 PM,37.4,28.4,70,30.15,4.0,North,-9999.0,-,N/A,,Clear,0,2013-03-08 22:35:00
4:55 PM,37.4,28.4,70,30.15,4.0,North,-9999.0,-,N/A,,Clear,0,2013-03-08 22:55:00
5:15 PM,37.4,28.4,70,30.15,4.0,North,-9999.0,-,N/A,,Clear,0,2013-03-08 23:15:00
5:35 PM,37.4,28.4,70,30.14,3.0,North,-9999.0,-,N/A,,Clear,0,2013-03-08 23:35:00
5:55 PM,37.4,28.4,70,30.13,4.0,North,-9999.0,-,N/A,,Clear,0,2013-03-08 23:55:00
6:15 PM,37.4,28.4,70,30.12,4.0,North,-9999.0,-,N/A,,Clear,0,2013-03-09 00:15:00
6:35 PM,37.4,28.4,70,30.12,4.0,North,-9999.0,-,N/A,,Clear,0,2013-03-09 00:35:00
6:55 PM,39.2,28.4,65,30.10,6.0,North,-9999.0,-,N/A,,Clear,0,2013-03-09 00:55:00
7:15 PM,39.2,28.4,65,30.09,7.0,North,-9999.0,-,N/A,,Clear,0,2013-03-09 01:15:00
7:35 PM,39.2,28.4,65,30.09,7.0,North,-9999.0,-,N/A,,Clear,0,2013-03-09 01:35:00
7:55 PM,39.2,28.4,65,30.09,7.0,North,-9999.0,-,N/A,,Scattered Clouds,0,2013-03-09 01:55:00
8:15 PM,39.2,28.4,65,30.09,7.0,North,-9999.0,-,N/A,,Overcast,0,2013-03-09 02:15:00
8:35 PM,39.2,28.4,65,30.08,7.0,North,-9999.0,-,N/A,,Overcast,0,2013-03-09 02:35:00
8:55 PM,41.0,28.4,61,30.08,8.0,North,-9999.0,-,N/A,,Overcast,0,2013-03-09 02:55:00
9:15 PM,41.0,28.4,61,30.08,9.0,North,-9999.0,-,N/A,,Overcast,0,2013-03-09 03:15:00
9:35 PM,39.2,28.4,65,30.08,8.0,North,-9999.0,-,N/A,,Overcast,0,2013-03-09 03:35:00
9:55 PM,39.2,28.4,65,30.07,8.0,North,-9999.0,-,N/A,,Overcast,0,2013-03-09 03:55:00
10:15 PM,39.2,28.4,65,30.07,8.0,North,-9999.0,-,N/A,,Overcast,0,2013-03-09 04:15:00
10:35 PM,39.2,28.4,65,30.06,7.0,North,-9999.0,-,N/A,,Overcast,0,2013-03-09 04:35:00
10:55 PM,39.2,30.2,70,30.06,5.0,North,-9999.0,-,N/A,,Overcast,0,2013-03-09 04:55:00
11:15 PM,39.2,28.4,65,30.06,7.0,North,-9999.0,-,N/A,,Overcast,0,2013-03-09 05:15:00
11:35 PM,39.2,30.2,70,30.05,7.0,North,-9999.0,-,0.01,,Overcast,0,2013-03-09 05:35:00
11:55 PM,39.2,30.2,70,30.03,5.0,North,-9999.0,-,0.05,,Mostly Cloudy,0,2013-03-09 05:55:00